Weather in Mount Isa

Australia     20°43′52″S   139°28′55″E
temp.,
°C
wind,
m/s
gust,
m/s
humid.,
%
clouds,
%
prec.,
mm/h
press.,
hPa
HPBL,
m
17 april, sat
sat1701:00+23s1016310 0.0 1016452
04:00+20sse10173936 0.0 1016502
07:00+19sse10184263 0.0 1017503
10:00+24sse12143433 0.0 1018829
13:00+28sse1010270 0.0 10151543
16:00+29sse99262 0.0 10132034
19:00+25sse812325 0.0 1015497
22:00+23sse8143113 0.0 1016543
18 april, sun
sun1801:00+21sse1017230 0.0 1016542
04:00+20sse1017280 0.0 1015486
07:00+18se917354 0.0 1017475
10:00+23se1112350 0.0 1017823
13:00+28se99280 0.0 10141718
16:00+29se88252 0.0 10122221
19:00+25sse711270 0.0 1014317
22:00+22sse714200 0.0 1015314
19 april, mon
mon1901:00+20sse715200 0.0 1014322
04:00+19se714225 0.0 1013274
07:00+18se714285 0.0 1014255
10:00+25ese810233 0.0 1015758
13:00+29e65230 0.0 10121880
16:00+30ese44210 0.0 10092486
19:00+27ese45250 0.0 101149
22:00+23se58310 0.0 1013115
20 april, tue
tue2001:00+22se59315 0.0 1012137
04:00+20se611338 0.0 1012161
07:00+20se593456 0.0 1013119
10:00+27ese772624 0.0 1014690
13:00+31s4321100 0.0 10112433
16:00+32s44174 0.0 10102653
19:00+28sse4521100 0.0 101152
22:00+25sse5112298 0.0 1013183
21 april, wed
wed2101:00+23sse814275 0.0 1013282
04:00+22sse9162723 0.0 1013331
07:00+21se917226 0.0 1014346
10:00+26se1112207 0.0 1015636
13:00+31se87234 0.0 10121592
16:00+32sse762014 0.0 10102633
19:00+28sse71222100 0.0 1012341
22:00+26sse101417100 0.0 1014603